Regional Weather Roundup
Issued by NWS

Home | Current Version | Previous Version | Graphics & Text | Print | Product List | Glossary On
Versions: 1 2 3 4 5 6 7 8 9 10 11 12 13 14 15 16 17 18 19 20 21 22 23 24 25 26 27 28 29 30 31 32 33 34 35 36 37 38 39 40 41 42 43 44 45 46 47 48 49 50
000
ASUS43 KMKX 240507
RWRWI

WISCONSIN REGIONAL WEATHER ROUNDUP
NATIONAL WEATHER SERVICE MILWAUKEE/SULLIVAN WI
1200 AM CDT SUN MAY 24 2015

NOTE: "FAIR" INDICATES FEW OR NO CLOUDS BELOW 12,000 FEET WITH NO
SIGNIFICANT WEATHER AND/OR OBSTRUCTIONS TO VISIBILITY.

WIZ001-002-006>008-014>016-023>028-240600-
NORTHWEST WISCONSIN

CITY           SKY/WX    TMP DP  RH WIND       PRES   REMARKS
SUPERIOR ARPT  CLEAR     51  43  75 CALM      30.15S
ASHLAND        CLEAR     53  42  66 SW6       30.16S
HAYWARD        CLOUDY    51  45  79 CALM      30.18S
SIREN          LGT RAIN  58  51  76 CALM      30.17S
CUMBERLAND     LGT RAIN  57  50  77 E6        30.17S
RICE LAKE      CLOUDY    59  53  80 CALM      30.18S
CHETEK         CLOUDY    58  53  83 N3        30.17S
LADYSMITH      CLOUDY    59  51  76 CALM      30.20R
EAU CLAIRE     MOCLDY    59  46  62 NE5       30.15S
MENOMONIE      CLOUDY    60  46  58 CALM      30.16S
NEW RICHMOND   CLOUDY    60  48  65 CALM      30.16R
OSCEOLA        CLOUDY    61  51  71 CALM      30.18S
$$

WIZ003>005-009-010-017-018-240600-
NORTH CENTRAL WISCONSIN

CITY           SKY/WX    TMP DP  RH WIND       PRES   REMARKS
MANITOWISH WTR CLOUDY    55  46  73 CALM      30.19S
ARBOR VITAE    CLOUDY    59  46  60 CALM      30.19S
WOODRUFF       CLOUDY    59  46  60 CALM      30.19S
RHINELANDER    CLOUDY    58  45  62 CALM      30.20S
EAGLE RIVER    CLOUDY    58  41  52 CALM      30.19S
LAND O LAKES   MOCLDY    56  42  60 CALM      30.20S
PHILLIPS       CLOUDY    56  47  71 CALM      30.18S
TOMAHAWK       CLOUDY    54  47  77 CALM      30.19F
MEDFORD        DRIZZLE   56  50  80 E3        30.19F
MERRILL        CLOUDY    56  51  82 CALM      30.20S
$$

WIZ029-030-035-036-043>047-240600-
CENTRAL WISCONSIN

CITY           SKY/WX    TMP DP  RH WIND       PRES   REMARKS
WAUSAU         CLOUDY    59  48  67 NW3       30.17S
MOSINEE        CLOUDY    61  43  51 NE3       30.19S
MARSHFIELD     CLOUDY    63  44  50 CALM      30.18S
STEVENS POINT  CLOUDY    56  47  72 CALM      30.18S
WAUPACA        MOCLDY    63  47  55 CALM      30.18S
WAUTOMA        NOT AVBL
WISC RAPIDS    CLOUDY    58  44  60 CALM      30.18F
CAMP DOUGLAS   NOT AVBL
$$

WIZ011>013-019>022-031-037>040-048>050-240600-
NORTHEAST WISCONSIN

CITY           SKY/WX    TMP DP  RH WIND       PRES   REMARKS
ANTIGO         CLOUDY    59  49  69 CALM      30.20S
SHAWANO        MOCLDY    62  44  52 CALM      30.18S
OCONTO         CLOUDY    56  49  78 CALM      30.17S
STURGEON BAY   CLOUDY    61  39  44 S9        30.21R
GREEN BAY      MOCLDY    64  42  44 S6        30.18F
MANITOWOC      NOT AVBL
APPLETON       MOCLDY    61  45  55 SE7       30.19S
CLINTONVILLE   MOCLDY    57  46  67 CALM      30.18S
OSHKOSH        PTCLDY    57  44  62 S8        30.18S
$$

WIZ032>034-041-042-053>061-240600-
SOUTHWEST WISCONSIN

CITY           SKY/WX    TMP DP  RH WIND       PRES   REMARKS
LA CROSSE      PTCLDY    61  50  67 SE5       30.14S
SPARTA         MOCLDY    53  48  83 CALM      30.17S
VIROQUA        MOCLDY    63  44  51 SE6       30.17S
BOSCOBEL       PTCLDY    54  49  83 CALM      30.16S
PRAIRIE DU CHI MOCLDY    59  49  69 CALM      30.14S
PLATTEVILLE    MOCLDY    64  48  56 SE7       30.16F
$$

WIZ056-057-062-063-064-067-068-240600-
SOUTH CENTRAL WISCONSIN

CITY           SKY/WX    TMP DP  RH WIND       PRES   REMARKS
REEDSBURG      PTCLDY    56  48  74 CALM      30.17S
BARABOO/DELLS  PTCLDY    56  44  63 CALM      30.17S
LONE ROCK      NOT AVBL
MINERAL POINT  PTCLDY    64  41  42 SE5       30.17S
MADISON        CLEAR     56  47  71 NE3       30.17F
MIDDLETON      CLEAR     55  46  69 CALM      30.18S
WATERTOWN      CLEAR     57  46  67 CALM      30.18S
MONROE         PTCLDY    68  43  40 SE6       30.17F
JANESVILLE     PTCLDY    61  43  51 CALM      30.17F
$$

WIZ051-052-058>065-066-070>072-240600-
SOUTHEAST WISCONSIN

CITY           SKY/WX    TMP DP  RH WIND       PRES   REMARKS
MILWAUKEE      PTCLDY    60  39  45 S3        30.20S
WAUKESHA       PTCLDY    59  39  47 S5        30.21S
MILWAUKEE/TIMM PTCLDY    61  39  44 CALM      30.21S
RACINE         PTCLDY    57  38  48 S6        30.22S
BURLINGTON     PTCLDY    52  46  79 CALM      30.20F
KENOSHA        PTCLDY    55  41  59 CALM      30.20F
FOND DU LAC    PTCLDY    59  43  55 S3        30.19S
SHEBOYGAN      PTCLDY    52  40  63 SW3       30.20F
WEST BEND      PTCLDY    54  43  66 CALM      30.20F
JUNEAU         PTCLDY    60  45  57 SE6       30.20S
$$

LSZ147-162-240600-
LAKE SUPERIOR

STATION/POSITION TIME  TEMP    WIND        PRES    WAVE
                       AIR SEA DIR/SP/G            HT/PER
                 (UTC) (F)     (DEG/KT/KT) (MB)    (FT/S)
W MID LAKE BUOY  0350   45 37  220/ 12/ 12   N/A     1
DEVILS ISLAND    0400   63     230/ 19/ 20   N/A
PORT WING        0440   61     200/  5/  6   N/A
SAXON HARBOR     0400   55     200/  3/  4   N/A
$$

LMZ867-665-643>646-240600-
LAKE MICHIGAN

STATION/POSITION TIME  TEMP    WIND        PRES    WAVE
                       AIR SEA DIR/SP/G            HT/PER
                 (UTC) (F)     (DEG/KT/KT) (MB)    (FT/S)
CHAMBERS ISLAND  0400   63     170/  6/ 11   N/A
N MID LAKE BUOY  0350   42 36  210/ 10/ 12   N/A     2/ 4
NORTHPORT PIER   0400   65     190/  6/ 15   N/A
SISTER BAY       0417   64     200/ 18/ 20   N/A
KEWAUNEE LAKESHO 0400   59     190/  8/ 10   N/A
SHEBOYGAN LAKESH 0400   57     210/  5/  6   N/A
PORT WASHINGTON  0300   54      CALM  /  1   N/A
ATWATER BUOY     0400   50 45   60/  2/  2   N/A
MILWAUKEE LAKESH 0400   53     220/  1/  2   N/A
S MID LAKE BUOY  0350   48 38  130/ 10/ 10   N/A     0
KENOSHA   LAKESH 0400   56     180/ 11/ 12   N/A
$$

TC  - TEMPERATURE IN CELSIUS
VSB - VISIBILITY IN STATUTE MILES
WCI - WIND CHILL INDEX
HX  - HEAT INDEX



USA.gov is the U.S. government's official web portal to all federal, state and local government web resources and services.